Fremont, NE

12:32 AM CDT on July 21, 2017 (GMT -0500)
Fremont Municipal

Weather History for KFET - February, 2012

Change the Weather History Date:

Friday, February 24, 2012

  Actual Average Record
Temperature  
Mean Temperature 30 °F -  
Max Temperature 36 °F 41 °F 70 °F (1981)
Min Temperature 23 °F 19 °F -10 °F (1965)
Degree Days  
Heating Degree Days 36    
Moisture  
Dew Point 23 °F    
Average Humidity 77    
Maximum Humidity 92    
Minimum Humidity 61    
Precipitation  
Precipitation 0.06 in - - ()
Sea Level Pressure  
Sea Level Pressure 30.05 in    
Wind  
Wind Speed 16 mph (NW)    
Max Wind Speed 23 mph    
Max Gust Speed 31 mph    
Visibility 10 miles    
Events      
Averages and records for this station are not official NWS values.
T = Trace of Precipitation, MM = Missing Value Source: NWS Daily Summary

Daily Weather History Graph

Daily Weather History Graph

Search for Another Location

Airport or City:

Trip Planner

Search our weather history database for the weather conditions in past years. The results will help you decide how hot, cold, wet, or windy it might be!

Date:

Astronomy

Feb. 24, 2012 Rise Set
Actual Time 7:09 AM CST 6:10 PM CST
Civil Twilight 6:41 AM CST 6:38 PM CST
Nautical Twilight 6:08 AM CST 7:10 PM CST
Astronomical Twilight 5:36 AM CST 7:42 PM CST
Moon 8:01 AM CST (2/24) 9:18 PM CST (2/24)
Length of Visible Light 11h 57m
Length of Day
11h 01m
Waxing Crescent, 8% of the Moon is Illuminated
Feb 24
Waxing Crescent
Feb 29
First Quarter
Mar 8
Full
Mar 14
Last Quarter
Mar 22
New

Hourly Weather History & Observations

Time (CST) Temp. Windchill Dew Point Humidity Pressure Visibility Wind Dir Wind Speed Gust Speed Precip Events Conditions
12:15 AM 32.9 °F 20.7 °F 30.7 °F 92% 29.83 in 7.0 mi NW 21.9 mph 25.3 mph N/A   Overcast
12:35 AM 32.0 °F 20.8 °F 28.9 °F 88% 29.84 in 10.0 mi NW 17.3 mph - N/A   Overcast
12:55 AM 32.0 °F 19.8 °F 28.4 °F 87% 29.85 in 10.0 mi NW 20.7 mph 31.1 mph N/A   Mostly Cloudy
1:15 AM 31.1 °F 21.4 °F 27.9 °F 88% 29.86 in 10.0 mi WNW 12.7 mph - N/A   Scattered Clouds
1:35 AM 30.2 °F 20.2 °F 27.1 °F 88% 29.87 in 10.0 mi WNW 12.7 mph - N/A   Clear
1:55 AM 30.4 °F 20.5 °F 26.2 °F 85% 29.88 in 10.0 mi WNW 12.7 mph - N/A   Clear
2:15 AM 30.0 °F 20.0 °F 25.7 °F 84% 29.89 in 10.0 mi WNW 12.7 mph - N/A   Clear
2:35 AM 28.8 °F 19.0 °F 25.2 °F 86% 29.89 in 10.0 mi WNW 11.5 mph - N/A   Clear
2:55 AM 28.8 °F 18.4 °F 25.0 °F 86% 29.89 in 10.0 mi WNW 12.7 mph - N/A   Clear
3:15 AM 28.4 °F 17.5 °F 24.6 °F 86% 29.89 in 10.0 mi WNW 13.8 mph - N/A   Clear
3:35 AM 27.5 °F 16.3 °F 23.9 °F 86% 29.89 in 10.0 mi WNW 13.8 mph - N/A   Clear
3:55 AM 27.1 °F 16.4 °F 23.7 °F 87% 29.90 in 10.0 mi WNW 12.7 mph - N/A   Clear
4:15 AM 27.3 °F 16.6 °F 23.5 °F 86% 29.91 in 10.0 mi WNW 12.7 mph - N/A   Clear
4:35 AM 26.6 °F 16.2 °F 23.2 °F 87% 29.92 in 10.0 mi West 11.5 mph - N/A   Clear
4:55 AM 26.6 °F 15.7 °F 23.0 °F 86% 29.92 in 10.0 mi West 12.7 mph - N/A   Scattered Clouds
5:15 AM 27.9 °F 18.4 °F 24.6 °F 88% 29.93 in 10.0 mi West 10.4 mph - N/A   Mostly Cloudy
5:35 AM 29.1 °F 18.9 °F 25.5 °F 86% 29.93 in 10.0 mi West 12.7 mph - N/A   Overcast
6:15 AM 31.8 °F 19.9 °F 28.0 °F 86% 29.95 in 10.0 mi NW 19.6 mph - N/A   Overcast
6:35 AM 32.0 °F 19.8 °F 28.0 °F 85% 29.96 in 10.0 mi NW 20.7 mph 24.2 mph N/A   Overcast
6:55 AM 32.0 °F 20.5 °F 27.5 °F 83% 29.97 in 10.0 mi WNW 18.4 mph - N/A   Overcast
7:15 AM 31.8 °F 21.4 °F 27.5 °F 84% 29.99 in 10.0 mi WNW 15.0 mph - N/A   Overcast
7:35 AM 31.1 °F 18.6 °F 25.9 °F 81% 30.01 in 10.0 mi NW 20.7 mph 29.9 mph N/A   Scattered Clouds
7:55 AM 30.4 °F 18.4 °F 25.2 °F 81% 30.02 in 10.0 mi NW 18.4 mph 28.8 mph N/A   Scattered Clouds
8:15 AM 31.1 °F 20.9 °F 26.1 °F 82% 30.02 in 10.0 mi NW 13.8 mph - N/A   Mostly Cloudy
8:55 AM 31.1 °F 18.6 °F 23.7 °F 74% 30.04 in 10.0 mi WNW 20.7 mph 28.8 mph N/A   Mostly Cloudy
9:15 AM 30.7 °F 18.5 °F 23.4 °F 74% 30.06 in 10.0 mi NW 19.6 mph 24.2 mph N/A   Scattered Clouds
9:35 AM 30.9 °F 17.8 °F 22.5 °F 71% 30.07 in 10.0 mi NW 23.0 mph 28.8 mph N/A   Clear
9:55 AM 30.7 °F 17.5 °F 22.3 °F 71% 30.08 in 10.0 mi NW 23.0 mph 28.8 mph N/A   Clear
10:15 AM 31.3 °F 19.5 °F 22.8 °F 71% 30.09 in 10.0 mi NW 18.4 mph - N/A   Clear
10:35 AM 32.0 °F 19.5 °F 22.5 °F 68% 30.10 in 10.0 mi NW 21.9 mph 26.5 mph N/A   Scattered Clouds
10:55 AM 32.7 °F 22.1 °F 24.4 °F 72% 30.10 in 10.0 mi WNW 16.1 mph - N/A   Clear
11:15 AM 33.1 °F 23.0 °F 24.4 °F 71% 30.10 in 10.0 mi WNW 15.0 mph 20.7 mph N/A   Clear
11:35 AM 34.3 °F 23.5 °F 23.9 °F 66% 30.10 in 10.0 mi WNW 18.4 mph 23.0 mph N/A   Clear
12:15 PM 36.1 °F 26.5 °F 24.1 °F 62% 30.10 in 10.0 mi WNW 16.1 mph - N/A   Scattered Clouds
5:15 PM 35.1 °F 26.4 °F 28.2 °F 76% 30.12 in 10.0 mi NNW 12.7 mph 19.6 mph N/A   Scattered Clouds
5:35 PM 34.7 °F 26.4 °F 27.3 °F 74% 30.13 in 10.0 mi NNW 11.5 mph 17.3 mph N/A   Mostly Cloudy
5:55 PM 33.8 °F 24.8 °F 25.5 °F 72% 30.13 in 10.0 mi NW 12.7 mph 19.6 mph N/A   Scattered Clouds
6:15 PM 32.9 °F 24.1 °F 24.8 °F 72% 30.14 in 10.0 mi NW 11.5 mph - N/A   Clear
6:35 PM 32.2 °F 23.8 °F 23.7 °F 71% 30.14 in 10.0 mi NW 10.4 mph - N/A   Clear
6:55 PM 31.1 °F 23.7 °F 23.5 °F 74% 30.14 in 10.0 mi WNW 8.1 mph - N/A   Clear
7:15 PM 30.2 °F 21.3 °F 23.4 °F 76% 30.16 in 10.0 mi NW 10.4 mph - N/A   Scattered Clouds
7:35 PM 32.0 °F 21.6 °F 23.0 °F 69% 30.16 in 10.0 mi NW 15.0 mph 20.7 mph N/A   Mostly Cloudy
7:55 PM 31.1 °F 19.3 °F 21.0 °F 66% 30.18 in 10.0 mi NW 18.4 mph - N/A   Scattered Clouds
8:15 PM 30.2 °F 18.9 °F 19.9 °F 66% 30.18 in 10.0 mi NW 16.1 mph - N/A   Clear
8:35 PM 29.3 °F 18.6 °F 20.3 °F 69% 30.19 in 10.0 mi WNW 13.8 mph - N/A   Clear
8:55 PM 30.0 °F 18.7 °F 20.1 °F 67% 30.20 in 10.0 mi WNW 16.1 mph 25.3 mph N/A   Clear
9:15 PM 28.9 °F 16.1 °F 18.3 °F 65% 30.21 in 10.0 mi NW 19.6 mph - N/A   Clear
9:35 PM 28.0 °F 17.0 °F 18.9 °F 68% 30.21 in 10.0 mi WNW 13.8 mph - N/A   Clear
9:55 PM 27.5 °F 15.0 °F 17.6 °F 66% 30.23 in 10.0 mi WNW 17.3 mph - N/A   Clear
10:15 PM 26.4 °F 11.8 °F 14.5 °F 61% 30.24 in 10.0 mi NW 23.0 mph 27.6 mph N/A   Clear
10:35 PM 25.2 °F 12.9 °F 15.8 °F 68% 30.24 in 10.0 mi NW 15.0 mph 23.0 mph N/A   Clear
10:55 PM 24.8 °F 12.4 °F 15.8 °F 69% 30.25 in 10.0 mi NW 15.0 mph 20.7 mph N/A   Clear
11:15 PM 23.7 °F 12.6 °F 15.4 °F 71% 30.26 in 10.0 mi WNW 11.5 mph - N/A   Clear
11:35 PM 23.4 °F 11.6 °F 15.4 °F 72% 30.26 in 10.0 mi WNW 12.7 mph - N/A   Clear
11:55 PM 23.0 °F 11.1 °F 14.9 °F 71% 30.26 in 10.0 mi WNW 12.7 mph - N/A   Clear